User: anonymous   Login
Location: PACMO
(41.3967°N, 90.3760°W)
Time: 21:45:17
(UTC-05:00)
Language:

NOAA 19 - Orbit

View from above orbital plane
View from above orbital plane
View from above satellite
View from above satellite

Ground track
Ground track

The orbit data is extracted from the following two-line orbital elements,

1 33591U 09005A   14297.48405086  .00000430  00000-0  25989-3 0  4351
2 33591 098.9593 242.2120 0015039 113.4514 358.0986 14.11785692294239
Epoch (UTC): 24 October 2014 11:37:01
Eccentricity: 0.0015039
inclination: 98.9593°
perigee height: 842 km
apogee height: 864 km
right ascension of ascending node: 242.2120°
argument of perigee: 113.4514°
revolutions per day: 14.11785692
mean anomaly at epoch: 358.0986°
orbit number at epoch: 29423

The dashed part of the orbit path shows where the satellite is in the earth's shadow,  

DLR